#timestamp,LO_Frequency,Hit,StdDev 
1457107215.7,286046994.2,P
1457107235.5,286046994.7,P
1457107255.4,286046992.0,Y
1457107275.2,286046997.3,P
1457107295.0,286046993.6,P
1457107295.9,286046993.6,P
1457107315.8,286046994.5,Y
1457107335.6,286047002.5,P
1457107355.4,286047000.8,N
1457107375.3,286047000.5,N
1457107395.1,286046997.3,N
1457107396.0,286046997.3,N
1457107415.8,286046994.9,N
1457107435.6,286046994.6,N
1457107455.5,286046996.3,N
1457107475.3,286046996.2,N
1457107495.1,286046993.5,N
1457107515.9,286046992.7,N
1457107535.7,286046991.8,N
1457107555.5,286046990.1,Y
1457107575.4,286046996.2,P
1457107595.2,286046995.8,P
1457107615.0,286046996.9,P
1457107615.9,286046996.9,Y
1457107635.8,286047004.3,P
1457107655.6,286047000.1,N
1457107675.4,286047003.9,N
1457107695.3,286046999.9,N
1457107715.1,286046999.7,N
1457107716.0,286046999.7,N
1457107735.8,286047002.4,N
1457107755.7,286046998.2,N
1457107775.5,286046998.7,N
1457107795.3,286047000.6,N
1457107815.2,286046999.1,N
1457107835.9,286046996.1,N
1457107855.7,286046997.5,N
1457107875.6,286046995.5,N
1457107895.4,286046995.8,N
1457107915.2,286046997.1,N
1457107935.0,286046996.6,N
1457107936.0,286046996.6,N
1457107955.8,286046995.4,N
1457107975.6,286046998.7,N
1457107995.4,286046999.1,N
1457108015.3,286046999.6,N
1457108035.1,286046995.9,N
1457108055.8,286046992.3,Y
1457108075.7,286046995.8,P
1457108095.5,286046997.6,N
1457108115.3,286046995.1,P
1457108135.2,286046991.8,Y
1457108155.0,286046995.9,P
1457108155.9,286046995.9,P
1457108175.7,286046996.3,P
1457108195.6,286046994.8,Y
1457108215.4,286046999.0,P
1457108235.2,286046999.5,N
1457108255.1,286046998.6,N
1457108256.0,286046998.6,N
1457108275.8,286046994.9,Y
1457108295.6,286046996.5,P
1457108315.5,286046998.1,N
1457108335.3,286047000.2,N
1457108355.1,286047002.1,N
1457108375.9,286046998.1,N
1457108395.7,286046999.3,N
1457108415.5,286046999.0,N
1457108435.4,286046998.4,N
1457108455.2,286046996.8,N
1457108475.0,286046996.6,N
1457108475.9,286046996.6,N
1457108495.8,286046997.2,N
1457108515.6,286046996.8,N
1457108535.4,286046996.7,N
1457108555.3,286046998.0,N
1457108575.1,286046998.8,N
1457108576.0,286046998.8,N
1457108595.8,286046998.7,N
1457108615.7,286046999.1,N
1457108635.5,286046997.3,N
1457108655.3,286046995.8,Y
1457108675.2,286046999.1,P
1457108695.9,286046999.3,N
1457108715.7,286046999.7,N
1457108735.5,286047000.8,N
1457108755.4,286046998.7,N
1457108775.2,286046997.9,N
1457108795.0,286046995.6,Y
1457108796.0,286046995.6,P
1457108815.8,286046997.3,N
1457108835.6,286046995.2,P
1457108855.5,286046994.2,Y
1457108875.3,286046996.9,P
1457108895.1,286046999.5,P
1457108915.8,286046998.0,N
1457108935.7,286046998.9,N
1457108955.5,286046999.6,N
1457108975.3,286046997.8,N
1457108995.2,286046993.7,Y
1457109015.0,286046997.0,P
1457109015.9,286046997.0,P
1457109035.7,286046996.6,P
1457109055.6,286046996.6,Y
1457109075.4,286047001.0,P
1457109095.2,286046999.8,N
1457109115.1,286047000.9,N
1457109116.0,286047000.9,N
1457109135.8,286047001.6,N
1457109155.6,286047000.0,N
1457109175.5,286047001.9,N
1457109195.3,286047000.1,N
1457109215.1,286047000.2,N
1457109235.9,286047002.8,N
1457109255.7,286047001.6,N
1457109275.5,286047002.0,N
1457109295.4,286047004.0,N
1457109315.2,286047004.2,N
1457109335.0,286047001.3,N
1457109335.9,286047001.3,N
1457109355.8,286047003.1,N
1457109375.6,286047004.8,N
1457109395.4,286047009.0,Y
1457109415.3,286047008.9,P
1457109435.1,286047004.9,N
1457109436.0,286047004.9,N
1457109455.8,286047007.4,N
1457109475.7,286047008.6,Y
1457109495.5,286047004.1,P
1457109515.3,286047005.1,P
1457109535.2,286047007.3,P
1457109555.9,286047008.1,Y
1457109575.7,286047003.0,P
1457109595.6,286047003.4,N
1457109615.4,286047007.0,P
1457109635.2,286047005.6,Y
1457109655.1,286047000.2,P
1457109656.0,286047000.2,N
1457109675.8,286047000.0,N
1457109695.6,286047002.8,N
1457109715.5,286047007.3,Y
1457109735.3,286047008.6,P
1457109755.1,286047012.0,P
1457109775.9,286047011.4,N
1457109795.7,286047010.7,N
1457109815.5,286047010.4,N
1457109835.4,286047006.5,N
1457109855.2,286047005.6,N
1457109875.0,286047005.5,N
1457109875.9,286047005.5,N
1457109895.8,286047005.0,N
1457109915.6,286047003.1,N
1457109935.4,286047005.6,N
1457109955.2,286047007.6,N
1457109975.1,286047010.4,Y
1457109976.0,286047010.4,P
1457109995.8,286047004.7,N
1457110015.6,286047005.4,N
1457110035.5,286047004.4,N
1457110055.3,286047002.0,N
1457110075.1,286047001.7,N
1457110095.9,286047002.8,N
1457110115.7,286047002.8,N
1457110135.5,286047000.0,N
1457110155.4,286047001.0,N
1457110175.2,286047000.2,N
1457110195.0,286047002.4,N
1457110195.9,286047002.4,N
1457110215.8,286047001.0,N
1457110235.6,286046998.8,N
1457110255.4,286047000.7,N
1457110275.3,286046999.6,N
1457110295.1,286046997.1,N
1457110315.8,286047001.0,N
1457110335.7,286047001.1,N
1457110355.5,286047000.2,N
1457110375.3,286046997.2,N
1457110395.2,286046997.9,N
1457110415.9,286046998.0,N
1457110435.7,286046998.3,N
1457110455.5,286046997.5,N
1457110475.4,286046994.9,N
1457110495.2,286046995.6,N
1457110515.0,286046997.4,N
1457110515.9,286046997.4,N
1457110535.8,286046995.9,N
1457110555.6,286046996.0,N
1457110575.4,286046995.4,N
1457110595.3,286046997.9,N
1457110615.1,286046995.0,N
1457110616.0,286046995.0,N
1457110635.8,286046997.8,N
1457110655.7,286047001.2,N
1457110675.5,286046998.9,N
1457110695.3,286047001.0,N
1457110715.2,286047001.7,N
1457110735.9,286047001.4,N
1457110755.7,286047002.5,N
1457110775.6,286046999.8,N
1457110795.4,286047003.7,N
